CZ-6A DEB, 56248

Orbit data source: Space-Track

CZ-6A DEB, 56248 is space debris in SSO originally from a launch on Fri, 11 Nov 2022 UTC launched from the Taiyaun Space Center, China (TSC). Debris objects in space refer to the collection of defunct objects orbiting the Earth. Examples of debris include non-operational satellites, rocket bodies, and fragments generated from explosions, collisions, or faulty payload assembly.

Loading next visibility...
Identifier
56248, 2022-151ABQ
Orbit
SSO
Country
Flag of CNCN / PRC
Related business
Manufacturer
SAST
Mission
Spacecraft
Bus & Motor
Unknown
Mass
Unknown
Launch date (UTC)
2022-11-11 (4 years ago)
Launch vehicle
Unknown
Launch site
Taiyaun Space Center, China (TSC)
Object type
Payload
Rocket body
Debris
Shape & HBR
Unknown shape, 0.1 m
Radar Cross Section
Medium (>0.1 m² and <1 m²)

Expand to show TLE details & history
Last TLE update: 19 hours ago

TLE from 19 hours ago
0 CZ-6A DEB
1 56248U 22151ABQ 26237.78023310 -.00000202  00000-0 -99710-4 0  9996
2 56248  98.8751 220.4933 0075030 181.3361 178.7616 14.03114981175894
Epoch: 2026-08-25T18:43Z
TLE epoch observation values (Epoch: 2026-08-25T18:43:32.139Z)
Latitude
-0.00008°
Longitude
-34.43327°
Altitude
940.393 km
Speed
7.354 km/s
True Right ascension
14h 41m 58s
True Declination
0° 00' 00"
Sunlit
Object was in daylight at epoch
Visualization orbit readout
Latitude
Unknown
Longitude
Unknown
Altitude
Unknown
Speed
Unknown
Apparent Right ascension
Unknown
Apparent Declination
Unknown
Sunlit
N/A
Visualization observer readout
Local Sidereal Time
04:37:13
Azimuth
Unknown
Elevation
Unknown
Doppler factor
Unknown
Orbital elements
Apogee altitude
934.677 km
Perigee altitude
825.758 km
Semi-major axis
7,258.354 km
Eccentricity
0.0075
Inclination
98.8751°
RAAN
220.4933°
Arg. of periapsis
181.3361°
True anomaly
178.78001°
Mean anomaly
178.7616°
Eccentric anomaly
178.77082°
Mean motion
3.50983 °/min
Orbital period
102.57 mins
BSTAR
-0.00009971
Loading maneuver chart data...
Computing Atmospheric mass density...
Loading historical data...
Loading historical data...
Loading historical data...
Loading historical data...
Loading historical data...
Loading historical data...
Loading historical data...

Documentation

Showing up to 5 results
|